This demonstration page uses our WeatherBlox Daily Observations layout. Learn more.

Left ArrowRight Arrow

41.86663, -103.66717

Hourly Observations for June 27, 2021

Temp ( °F °C ) Dew Point ( °F °C ) Humidity (%) Winds ( mph kmh ) Pressure ( in mb ) Visibility ( mi km ) Precip ( " mm )
12:53 am 00:53 Mostly Cloudy 57 13.9 51 10.6 81 81 WNW 7 11 30.02 1017 10 16 N/A
1:53 am 01:53 Clear 55 12.8 50 10 83 83 WNW 6 9 30.01 1016 10 16 N/A
2:53 am 02:53 Mostly Clear 54 12.2 50 10 87 87 NW 5 7 30.01 1016 10 16 N/A
3:53 am 03:53 Cloudy 55 12.8 51 10.6 87 87 N N/A 30.01 1016 10 16 N/A
4:53 am 04:53 Cloudy 56 13.3 51 10.6 84 84 SW 3 6 30.02 1017 10 16 N/A
5:53 am 05:53 Sunny 57 13.9 51 10.6 81 81 NW 6 9 30.02 1017 10 16 N/A
6:53 am 06:53 Sunny 61 16.1 52 11.1 72 72 NW 9 15 30.03 1017 10 16 N/A
7:53 am 07:53 Sunny 65 18.3 52 11.1 63 63 NW 9 15 30.04 1017 10 16 N/A
8:53 am 08:53 Mostly Sunny 68 20 52 11.1 57 57 WNW 8 13 30.04 1017 10 16 N/A
9:53 am 09:53 Mostly Cloudy 72 22.2 51 10.6 48 48 VRB 3 6 30.04 1017 10 16 N/A
10:29 am 10:29 Sunny with Nearby Thunderstorms 75 23.9 51 10.6 43 43 NNW 9 15 29.89 1012 10 16 N/A
10:53 am 10:53 Partly Cloudy with Nearby Thunderstorms 74 23.3 51 10.6 45 45 NNW 10 17 30.02 1017 10 16 N/A
11:00 am 11:00 Mostly Cloudy 73 23 52 11 47 47 WNW 8 13 29.90 1013 10 16 N/A
11:35 am 11:35 Cloudy with Nearby Thunderstorms 71 21.7 46 7.8 41 41 WNW 13 20 29.91 1013 10 16 N/A
11:53 am 11:53 Mostly Cloudy with Nearby Thunderstorms 70 21.1 50 10 49 49 WNW 10 17 30.03 1017 10 16 0.00 0.00
12:28 pm 12:28 Mostly Cloudy with Light Rain 66 18.9 53 11.7 63 63 WNW 7 11 29.95 1014 10 16 0.00 0.00
12:53 pm 12:53 Mostly Cloudy with Light Rain 69 20.6 55 12.8 61 61 WNW 10 17 30.03 1017 10 16 0.00 0.00
1:53 pm 13:53 Mostly Sunny 77 25 48 8.9 36 36 WNW 17 28 30.01 1016 10 16 0.00 0.00
2:53 pm 14:53 Partly Cloudy with Light Rain 65 18.3 53 11.7 66 66 WNW 10 17 30.05 1018 10 16 0.00 0.00
3:48 pm 15:48 Mostly Cloudy with Nearby Thunderstorms 64 18 48 9 56 56 NNW 22 35 29.98 1015 10 16 N/A
3:53 pm 15:53 Mostly Cloudy with Nearby Thunderstorms 62 16.7 50 10 65 65 NNW 22 35 30.06 1018 10 16 0.00 0.00
4:25 pm 16:25 Cloudy with Light Rain 59 15 N/A N/A NNW 12 19 30.03 1017 5 8 0.06 1.52
4:53 pm 16:53 Cloudy with Light Rain 61 16 N/A N/A WNW 6 9 30.06 1018 8 13 0.09 2.29
5:53 pm 17:53 Sunny 72 22 N/A N/A NW 10 17 30.02 1017 10 16 0.00 0.00
6:53 pm 18:53 Sunny 72 22.2 53 11.7 52 52 WNW 7 11 30.01 1016 10 16 N/A
7:53 pm 19:53 Sunny 66 18.9 54 12.2 65 65 W 6 9 30.03 1017 10 16 N/A
8:53 pm 20:53 Cloudy 65 18.3 54 12.2 68 68 WNW 6 9 30.04 1017 10 16 N/A
9:53 pm 21:53 Cloudy 64 17.8 55 12.8 73 73 WNW 3 6 30.06 1018 10 16 N/A
10:53 pm 22:53 Cloudy 63 17.2 56 13.3 78 78 NNW 3 6 30.06 1018 10 16 N/A
11:53 pm 23:53 Partly Cloudy 60 15.6 55 12.8 84 84 NW 6 9 30.07 1018 10 16 N/A

Powered by AerisWeather